THOR ABLESTAR DEB, 417

Orbit data source: Space-Track

THOR ABLESTAR DEB, 417 is space debris in LEO originally from a launch on Thu, 29 Jun 1961 UTC launched from the Air Force Eastern Test Range (AFETR). Debris objects in space refer to the collection of defunct objects orbiting the Earth. Examples of debris include non-operational satellites, rocket bodies, and fragments generated from explosions, collisions, or faulty payload assembly.

Loading next visibility...
Identifier
417, 1961-015ES
Orbit
LEO
Country
Flag of USUS
Related business
Manufacturer
Unknown
Mission
Spacecraft
Bus & Motor
Unknown
Mass
Unknown
Launch date (UTC)
1961-06-29 (65 years ago)
Launch vehicle
Unknown
Launch site
Air Force Eastern Test Range (AFETR)
Object type
Payload
Rocket body
Debris
Shape & HBR
Unknown shape, 0.1 m
Radar Cross Section
Small (<0.1 m²)

Expand to show TLE details & history
Last TLE update: 16 hours ago

TLE from 16 hours ago
0 THOR ABLESTAR DEB
1 00417U 61015ES  26112.06489439  .00000508  00000-0  26855-3 0  9992
2 00417  66.7468 355.1793 0064028 147.3512 213.1565 14.20671911329523
Epoch: 2026-04-22T01:33Z
TLE epoch observation values (Epoch: 2026-04-22T01:33:26.875Z)
Latitude
-0.00008°
Longitude
121.68561°
Altitude
863.876 km
Speed
7.401 km/s
True Right ascension
23h 40m 43s
True Declination
0° 00' 00"
Sunlit
Object was in daylight at epoch
Visualization orbit readout
Latitude
Unknown
Longitude
Unknown
Altitude
Unknown
Speed
Unknown
Apparent Right ascension
Unknown
Apparent Declination
Unknown
Sunlit
N/A
Visualization observer readout
Local Sidereal Time
01:01:56
Azimuth
Unknown
Elevation
Unknown
Doppler factor
Unknown
Orbital elements
Apogee altitude
867.555 km
Perigee altitude
775.36 km
Semi-major axis
7,199.595 km
Eccentricity
0.0064
Inclination
66.7468°
RAAN
355.1793°
Arg. of periapsis
147.3512°
True anomaly
212.75789°
Mean anomaly
213.1565°
Eccentric anomaly
212.95693°
Mean motion
3.55288 °/min
Orbital period
101.33 mins
BSTAR
0.00026855
Loading maneuver chart data...
Computing Atmospheric mass density...
Loading historical data...
Loading historical data...
Loading historical data...
Loading historical data...
Loading historical data...
Loading historical data...
Loading historical data...

Documentation

Showing up to 5 results
|